{"data":{"norad_id":54021,"epoch":"2026-09-20T21:49:57.067392Z","epoch_age_seconds":120172,"freshness":"FRESH","line1":"1 54021U 22126B   26263.90968828  .00000289  00000+0  93593-4 0  9995","line2":"2 54021  54.9990 192.1872 0011819 288.9222  71.0490 14.62388431211008","mean_motion":14.62388431,"eccentricity":0.0011819,"inclination_deg":54.999,"raan_deg":192.1872,"arg_perigee_deg":288.9222,"mean_anomaly_deg":71.049,"bstar":9.3593e-5,"rev_number":21100,"period_min":98.469050320325,"perigee_km":677.12398017952,"apogee_km":693.82094022154,"semimajor_km":7063.6094602005,"source":"CELESTRAK","updated_at":"2026-09-21T09:00:09.346858Z"}}